Time,TemperatureF,DewpointF,PressureIn,WindDirection,WindDirectionDegrees,WindSpeedMPH,WindSpeedGustMPH,Humidity,HourlyPrecipIn,Conditions,Clouds,dailyrainin,SoftwareType,DateUTC
2013-07-21 00:04:00,72.1,42.1,30.04,North,0,0.0,0.0,34,0.00,,,0.00,WUHU21623XXSP,2013-07-21 07:04:00,
2013-07-21 00:09:00,71.8,41.8,30.04,North,0,0.0,0.0,34,0.00,,,0.00,WUHU21623XXSP,2013-07-21 07:09:00,
2013-07-21 00:14:00,71.2,41.5,30.04,North,0,0.0,0.0,34,0.00,,,0.00,WUHU21623XXSP,2013-07-21 07:14:00,
2013-07-21 00:19:00,71.1,41.1,30.04,North,0,0.0,0.0,34,0.00,,,0.00,WUHU21623XXSP,2013-07-21 07:19:00,
2013-07-21 00:24:00,70.7,41.5,30.04,SSE,157,0.0,0.0,35,0.00,,,0.00,WUHU21623XXSP,2013-07-21 07:24:00,
2013-07-21 00:30:00,70.2,41.1,30.04,SSE,157,0.0,0.0,35,0.00,,,0.00,WUHU21623XXSP,2013-07-21 07:30:00,
2013-07-21 00:36:00,69.6,40.6,30.04,North,0,0.0,0.0,36,0.00,,,0.00,WUHU21623XXSP,2013-07-21 07:36:00,
2013-07-21 00:41:00,69.6,42.0,30.04,North,0,0.0,0.0,37,0.00,,,0.00,WUHU21623XXSP,2013-07-21 07:41:00,
2013-07-21 00:46:00,69.4,41.9,30.04,South,180,0.0,0.0,37,0.00,,,0.00,WUHU21623XXSP,2013-07-21 07:46:00,
2013-07-21 00:57:00,69.1,40.8,30.04,WNW,292,0.0,0.0,36,0.00,,,0.00,WUHU21623XXSP,2013-07-21 07:57:00,
2013-07-21 01:02:00,68.9,41.4,30.04,SSE,157,0.0,0.0,37,0.00,,,0.00,WUHU21623XXSP,2013-07-21 08:02:00,
2013-07-21 01:08:00,68.7,41.2,30.04,SSE,157,0.0,0.0,37,0.00,,,0.00,WUHU21623XXSP,2013-07-21 08:08:00,
2013-07-21 01:15:00,68.5,41.1,30.04,West,270,0.0,0.0,37,0.00,,,0.00,WUHU21623XXSP,2013-07-21 08:15:00,
2013-07-21 01:20:00,68.2,40.7,30.04,West,270,0.0,0.0,37,0.00,,,0.00,WUHU21623XXSP,2013-07-21 08:20:00,
2013-07-21 01:25:00,67.8,40.4,30.04,SSE,157,0.0,0.0,37,0.00,,,0.00,WUHU21623XXSP,2013-07-21 08:25:00,
2013-07-21 01:30:00,67.6,41.0,30.04,SSE,157,0.0,0.0,38,0.00,,,0.00,WUHU21623XXSP,2013-07-21 08:30:00,
2013-07-21 01:35:00,67.3,40.7,30.04,ENE,67,0.0,0.0,38,0.00,,,0.00,WUHU21623XXSP,2013-07-21 08:35:00,
2013-07-21 01:40:00,66.9,40.4,30.04,ESE,112,0.0,0.0,38,0.00,,,0.00,WUHU21623XXSP,2013-07-21 08:40:00,
2013-07-21 01:45:00,66.7,40.2,30.04,SE,135,0.0,0.0,38,0.00,,,0.00,WUHU21623XXSP,2013-07-21 08:45:00,
2013-07-21 01:50:00,66.7,40.2,30.04,SE,135,0.0,0.0,38,0.00,,,0.00,WUHU21623XXSP,2013-07-21 08:50:00,
2013-07-21 01:55:00,66.6,40.0,30.04,SE,135,0.0,0.0,38,0.00,,,0.00,WUHU21623XXSP,2013-07-21 08:55:00,
2013-07-21 02:00:00,66.4,40.6,30.04,SE,135,0.0,0.0,39,0.00,,,0.00,WUHU21623XXSP,2013-07-21 09:00:00,
2013-07-21 02:05:00,66.2,39.9,30.04,SE,135,0.0,0.0,39,0.00,,,0.00,WUHU21623XXSP,2013-07-21 09:05:00,
2013-07-21 02:10:00,66.0,40.3,30.04,SSE,157,0.0,0.0,39,0.00,,,0.00,WUHU21623XXSP,2013-07-21 09:10:00,
2013-07-21 02:15:00,66.0,40.3,30.04,SSE,157,0.0,0.0,39,0.00,,,0.00,WUHU21623XXSP,2013-07-21 09:15:00,
2013-07-21 02:20:00,65.8,40.1,30.04,NW,315,0.0,0.0,39,0.00,,,0.00,WUHU21623XXSP,2013-07-21 09:20:00,
2013-07-21 02:25:00,65.7,40.0,30.04,NW,315,0.0,0.0,39,0.00,,,0.00,WUHU21623XXSP,2013-07-21 09:25:00,
2013-07-21 02:31:00,65.7,40.0,30.04,WNW,292,0.0,0.0,39,0.00,,,0.00,WUHU21623XXSP,2013-07-21 09:31:00,
2013-07-21 02:36:00,65.5,39.8,30.04,SSE,157,0.0,0.0,39,0.00,,,0.00,WUHU21623XXSP,2013-07-21 09:36:00,
2013-07-21 02:41:00,65.3,39.6,30.04,SSE,157,0.0,0.0,39,0.00,,,0.00,WUHU21623XXSP,2013-07-21 09:41:00,
2013-07-21 02:46:00,65.3,39.6,30.04,SW,225,0.0,0.0,39,0.00,,,0.00,WUHU21623XXSP,2013-07-21 09:46:00,
2013-07-21 02:51:00,65.1,40.2,30.04,SSE,157,0.0,0.0,40,0.00,,,0.00,WUHU21623XXSP,2013-07-21 09:51:00,
2013-07-21 02:56:00,65.1,40.2,30.04,SW,225,0.0,0.0,40,0.00,,,0.00,WUHU21623XXSP,2013-07-21 09:56:00,
2013-07-21 03:01:00,64.9,40.0,30.05,South,180,0.0,0.0,40,0.00,,,0.00,WUHU21623XXSP,2013-07-21 10:01:00,
2013-07-21 03:08:00,64.4,39.6,30.04,South,180,0.0,0.0,40,0.00,,,0.00,WUHU21623XXSP,2013-07-21 10:08:00,
2013-07-21 03:13:00,64.2,39.4,30.04,SSE,157,0.0,0.0,40,0.00,,,0.00,WUHU21623XXSP,2013-07-21 10:13:00,
2013-07-21 03:19:00,64.0,39.8,30.04,South,180,0.0,0.0,41,0.00,,,0.00,WUHU21623XXSP,2013-07-21 10:19:00,
2013-07-21 03:30:00,63.3,39.2,30.05,ESE,112,0.0,0.0,41,0.00,,,0.00,WUHU21623XXSP,2013-07-21 10:30:00,
2013-07-21 03:35:00,63.1,39.6,30.04,ENE,67,0.0,0.0,42,0.00,,,0.00,WUHU21623XXSP,2013-07-21 10:35:00,
2013-07-21 03:45:00,62.6,39.3,30.05,East,90,0.0,0.0,42,0.00,,,0.00,WUHU21623XXSP,2013-07-21 10:45:00,
2013-07-21 03:50:00,62.4,38.9,30.05,SE,135,0.0,0.0,42,0.00,,,0.00,WUHU21623XXSP,2013-07-21 10:50:00,
2013-07-21 03:55:00,62.4,39.5,30.05,SE,135,0.0,0.0,43,0.00,,,0.00,WUHU21623XXSP,2013-07-21 10:55:00,
2013-07-21 04:00:00,61.9,39.2,30.05,SE,135,0.0,0.0,43,0.00,,,0.00,WUHU21623XXSP,2013-07-21 11:00:00,
2013-07-21 04:05:00,61.9,39.2,30.05,SE,135,0.0,0.0,43,0.00,,,0.00,WUHU21623XXSP,2013-07-21 11:05:00,
2013-07-21 04:10:00,61.7,38.9,30.05,ENE,67,0.0,0.0,43,0.00,,,0.00,WUHU21623XXSP,2013-07-21 11:10:00,
2013-07-21 04:19:00,61.3,38.5,30.05,ENE,67,0.0,0.0,43,0.00,,,0.00,WUHU21623XXSP,2013-07-21 11:19:00,
2013-07-21 04:27:00,61.2,38.4,30.05,ENE,67,0.0,0.0,43,0.00,,,0.00,WUHU21623XXSP,2013-07-21 11:27:00,
2013-07-21 04:32:00,61.0,38.8,30.06,WNW,292,0.0,0.0,44,0.00,,,0.00,WUHU21623XXSP,2013-07-21 11:32:00,
2013-07-21 04:37:00,61.0,39.4,30.06,WNW,292,0.0,0.0,45,0.00,,,0.00,WUHU21623XXSP,2013-07-21 11:37:00,
2013-07-21 04:44:00,61.0,39.4,30.06,NW,315,0.0,0.0,45,0.00,,,0.00,WUHU21623XXSP,2013-07-21 11:44:00,
2013-07-21 04:50:00,61.0,39.4,30.05,NW,315,0.0,0.0,45,0.00,,,0.00,WUHU21623XXSP,2013-07-21 11:50:00,
2013-07-21 04:55:00,60.6,39.0,30.05,North,0,0.0,0.0,45,0.00,,,0.00,WUHU21623XXSP,2013-07-21 11:55:00,
2013-07-21 05:00:00,60.6,39.0,30.05,North,0,0.0,0.0,45,0.00,,,0.00,WUHU21623XXSP,2013-07-21 12:00:00,
2013-07-21 05:06:00,60.6,39.0,30.05,North,0,0.0,0.0,45,0.00,,,0.00,WUHU21623XXSP,2013-07-21 12:06:00,
2013-07-21 05:11:00,60.1,38.6,30.06,NE,45,0.0,0.0,45,0.00,,,0.00,WUHU21623XXSP,2013-07-21 12:11:00,
2013-07-21 05:17:00,59.9,38.4,30.06,NE,45,0.0,0.0,45,0.00,,,0.00,WUHU21623XXSP,2013-07-21 12:17:00,
2013-07-21 05:23:00,59.7,38.2,30.06,SSE,157,0.0,0.0,45,0.00,,,0.00,WUHU21623XXSP,2013-07-21 12:23:00,
2013-07-21 05:28:00,59.7,38.8,30.06,SSE,157,0.0,0.0,46,0.00,,,0.00,WUHU21623XXSP,2013-07-21 12:28:00,
2013-07-21 05:33:00,59.5,38.1,30.06,SSE,157,0.0,0.0,45,0.00,,,0.00,WUHU21623XXSP,2013-07-21 12:33:00,
2013-07-21 05:38:00,59.5,39.8,30.06,NW,315,0.0,0.0,48,0.00,,,0.00,WUHU21623XXSP,2013-07-21 12:38:00,
2013-07-21 05:43:00,59.7,40.0,30.06,WNW,292,0.0,0.0,48,0.00,,,0.00,WUHU21623XXSP,2013-07-21 12:43:00,
2013-07-21 05:48:00,59.7,40.0,30.06,North,0,0.0,0.0,48,0.00,,,0.00,WUHU21623XXSP,2013-07-21 12:48:00,
2013-07-21 05:53:00,59.5,40.5,30.06,WNW,292,0.0,0.0,49,0.00,,,0.00,WUHU21623XXSP,2013-07-21 12:53:00,
2013-07-21 05:58:00,59.5,40.5,30.06,WNW,292,0.0,0.0,49,0.00,,,0.00,WUHU21623XXSP,2013-07-21 12:58:00,
2013-07-21 06:06:00,59.5,40.4,30.06,WNW,292,0.0,0.0,49,0.00,,,0.00,WUHU21623XXSP,2013-07-21 13:06:00,
2013-07-21 06:12:00,59.5,40.9,30.06,North,0,0.0,0.0,50,0.00,,,0.00,WUHU21623XXSP,2013-07-21 13:12:00,
2013-07-21 06:17:00,59.5,40.9,30.07,North,0,0.0,0.0,50,0.00,,,0.00,WUHU21623XXSP,2013-07-21 13:17:00,
2013-07-21 06:22:00,59.5,40.4,30.07,North,0,0.0,0.0,49,0.00,,,0.00,WUHU21623XXSP,2013-07-21 13:22:00,
2013-07-21 06:27:00,59.2,40.6,30.06,SSE,157,0.0,0.0,50,0.00,,,0.00,WUHU21623XXSP,2013-07-21 13:27:00,
2013-07-21 06:32:00,59.2,40.6,30.07,SSE,157,0.0,0.0,50,0.00,,,0.00,WUHU21623XXSP,2013-07-21 13:32:00,
2013-07-21 06:37:00,59.0,40.5,30.07,SSW,202,0.0,0.0,50,0.00,,,0.00,WUHU21623XXSP,2013-07-21 13:37:00,
2013-07-21 06:51:00,59.4,41.3,30.07,NNW,337,0.0,0.0,51,0.00,,,0.00,WUHU21623XXSP,2013-07-21 13:51:00,
2013-07-21 06:56:00,59.5,41.3,30.07,NNW,337,0.0,0.0,51,0.00,,,0.00,WUHU21623XXSP,2013-07-21 13:56:00,
2013-07-21 07:01:00,59.5,41.4,30.07,North,0,0.0,0.0,51,0.00,,,0.00,WUHU21623XXSP,2013-07-21 14:01:00,
2013-07-21 07:06:00,59.5,41.4,30.07,SSE,157,0.0,0.0,51,0.00,,,0.00,WUHU21623XXSP,2013-07-21 14:06:00,
2013-07-21 07:11:00,59.7,41.6,30.07,SSE,157,0.0,0.0,51,0.00,,,0.00,WUHU21623XXSP,2013-07-21 14:11:00,
2013-07-21 07:16:00,59.7,41.6,30.08,SSE,157,0.0,0.0,51,0.00,,,0.00,WUHU21623XXSP,2013-07-21 14:16:00,
2013-07-21 07:21:00,60.3,42.4,30.08,ESE,112,0.0,0.0,52,0.00,,,0.00,WUHU21623XXSP,2013-07-21 14:21:00,
2013-07-21 07:27:00,60.4,42.7,30.07,ESE,112,0.0,0.0,52,0.00,,,0.00,WUHU21623XXSP,2013-07-21 14:27:00,
2013-07-21 07:40:00,61.3,43.5,30.08,SE,135,0.0,0.0,52,0.00,,,0.00,WUHU21623XXSP,2013-07-21 14:40:00,
2013-07-21 07:45:00,61.5,43.5,30.08,SE,135,0.0,0.0,52,0.00,,,0.00,WUHU21623XXSP,2013-07-21 14:45:00,
2013-07-21 07:53:00,62.2,44.3,30.08,SSE,157,0.0,0.0,52,0.00,,,0.00,WUHU21623XXSP,2013-07-21 14:53:00,
2013-07-21 07:58:00,62.8,44.7,30.08,South,180,0.0,0.0,52,0.00,,,0.00,WUHU21623XXSP,2013-07-21 14:58:00,
2013-07-21 08:04:00,63.1,44.7,30.08,South,180,0.0,0.0,51,0.00,,,0.00,WUHU21623XXSP,2013-07-21 15:04:00,
2013-07-21 08:10:00,63.5,44.5,30.08,WNW,292,0.0,0.0,50,0.00,,,0.00,WUHU21623XXSP,2013-07-21 15:10:00,
2013-07-21 08:15:00,63.9,44.7,30.08,WNW,292,0.0,0.0,49,0.00,,,0.00,WUHU21623XXSP,2013-07-21 15:15:00,
2013-07-21 08:23:00,64.6,44.9,30.07,SSW,202,0.0,0.0,49,0.00,,,0.00,WUHU21623XXSP,2013-07-21 15:23:00,
2013-07-21 08:28:00,65.1,45.4,30.08,SSE,157,0.0,0.0,49,0.00,,,0.00,WUHU21623XXSP,2013-07-21 15:28:00,
2013-07-21 08:33:00,66.0,45.6,30.07,East,90,0.0,0.0,48,0.00,,,0.00,WUHU21623XXSP,2013-07-21 15:33:00,
2013-07-21 08:38:00,66.4,46.1,30.07,SE,135,0.0,0.0,48,0.00,,,0.00,WUHU21623XXSP,2013-07-21 15:38:00,
2013-07-21 08:43:00,67.3,46.7,30.07,SSE,157,0.0,0.0,47,0.00,,,0.00,WUHU21623XXSP,2013-07-21 15:43:00,
2013-07-21 08:48:00,68.2,47.1,30.07,SSE,157,0.0,0.0,47,0.00,,,0.00,WUHU21623XXSP,2013-07-21 15:48:00,
2013-07-21 08:53:00,68.7,47.4,30.07,SE,135,0.0,0.0,46,0.00,,,0.00,WUHU21623XXSP,2013-07-21 15:53:00,
2013-07-21 08:58:00,69.6,47.8,30.07,South,180,0.0,0.0,46,0.00,,,0.00,WUHU21623XXSP,2013-07-21 15:58:00,
2013-07-21 09:04:00,70.5,48.0,30.07,South,180,0.0,0.0,45,0.00,,,0.00,WUHU21623XXSP,2013-07-21 16:04:00,
2013-07-21 09:09:00,71.2,48.7,30.07,SSE,157,0.0,0.0,45,0.00,,,0.00,WUHU21623XXSP,2013-07-21 16:09:00,
2013-07-21 09:14:00,71.8,48.6,30.07,SSE,157,0.0,0.0,44,0.00,,,0.00,WUHU21623XXSP,2013-07-21 16:14:00,
2013-07-21 09:19:00,72.3,49.1,30.07,SSW,202,0.0,0.0,44,0.00,,,0.00,WUHU21623XXSP,2013-07-21 16:19:00,
2013-07-21 09:24:00,72.9,49.5,30.07,SSE,157,0.0,0.0,44,0.00,,,0.00,WUHU21623XXSP,2013-07-21 16:24:00,
2013-07-21 09:29:00,73.2,49.9,30.06,SSE,157,0.0,0.0,44,0.00,,,0.00,WUHU21623XXSP,2013-07-21 16:29:00,
2013-07-21 09:34:00,74.1,50.1,30.06,SSE,157,0.0,0.0,43,0.00,,,0.00,WUHU21623XXSP,2013-07-21 16:34:00,
2013-07-21 09:39:00,74.5,49.5,30.06,SE,135,0.0,0.0,42,0.00,,,0.00,WUHU21623XXSP,2013-07-21 16:39:00,
2013-07-21 09:44:00,74.7,50.0,30.06,SSE,157,0.0,0.0,42,0.00,,,0.00,WUHU21623XXSP,2013-07-21 16:44:00,
2013-07-21 09:49:00,75.6,50.7,30.06,SSE,157,0.0,0.0,42,0.00,,,0.00,WUHU21623XXSP,2013-07-21 16:49:00,
2013-07-21 09:55:00,76.3,50.9,30.06,SSE,157,0.0,0.0,41,0.00,,,0.00,WUHU21623XXSP,2013-07-21 16:55:00,
2013-07-21 10:00:00,76.8,50.6,30.06,SSE,157,0.0,0.0,40,0.00,,,0.00,WUHU21623XXSP,2013-07-21 17:00:00,
2013-07-21 10:12:00,77.9,50.9,30.06,SE,135,0.0,0.0,39,0.00,,,0.00,WUHU21623XXSP,2013-07-21 17:12:00,
2013-07-21 10:17:00,78.4,50.3,30.06,SE,135,0.0,0.0,38,0.00,,,0.00,WUHU21623XXSP,2013-07-21 17:17:00,
2013-07-21 10:23:00,79.0,50.4,30.05,North,0,0.0,0.0,37,0.00,,,0.00,WUHU21623XXSP,2013-07-21 17:23:00,
2013-07-21 10:28:00,79.3,50.7,30.05,West,270,0.0,0.0,37,0.00,,,0.00,WUHU21623XXSP,2013-07-21 17:28:00,
2013-07-21 10:35:00,80.2,50.7,30.06,WNW,292,0.0,0.0,36,0.00,,,0.00,WUHU21623XXSP,2013-07-21 17:35:00,
2013-07-21 10:40:00,80.6,51.0,30.05,SW,225,0.0,0.0,36,0.00,,,0.00,WUHU21623XXSP,2013-07-21 17:40:00,
2013-07-21 10:45:00,81.1,50.7,30.05,West,270,0.0,0.0,35,0.00,,,0.00,WUHU21623XXSP,2013-07-21 17:45:00,
2013-07-21 10:53:00,82.2,51.6,30.05,North,0,0.0,0.0,35,0.00,,,0.00,WUHU21623XXSP,2013-07-21 17:53:00,
2013-07-21 11:03:00,83.3,49.4,30.05,North,0,0.0,0.0,31,0.00,,,0.00,WUHU21623XXSP,2013-07-21 18:03:00,
2013-07-21 11:08:00,84.0,48.2,30.05,NNW,337,2.2,2.2,29,0.00,,,0.00,WUHU21623XXSP,2013-07-21 18:08:00,
2013-07-21 11:13:00,84.6,47.6,30.05,NNW,337,0.0,2.2,28,0.00,,,0.00,WUHU21623XXSP,2013-07-21 18:13:00,
2013-07-21 11:20:00,85.8,48.8,30.04,SSE,157,0.0,0.0,28,0.00,,,0.00,WUHU21623XXSP,2013-07-21 18:20:00,
2013-07-21 11:25:00,86.4,47.0,30.04,NNW,337,0.0,0.0,26,0.00,,,0.00,WUHU21623XXSP,2013-07-21 18:25:00,
2013-07-21 11:35:00,87.6,51.3,30.04,SE,135,0.0,0.0,29,0.00,,,0.00,WUHU21623XXSP,2013-07-21 18:35:00,
2013-07-21 11:40:00,88.2,51.6,30.04,SSW,202,0.0,0.0,29,0.00,,,0.00,WUHU21623XXSP,2013-07-21 18:40:00,
2013-07-21 11:45:00,88.5,52.1,30.04,South,180,0.0,0.0,29,0.00,,,0.00,WUHU21623XXSP,2013-07-21 18:45:00,
2013-07-21 11:50:00,89.4,52.9,30.04,SSE,157,2.0,2.0,29,0.00,,,0.00,WUHU21623XXSP,2013-07-21 18:50:00,
2013-07-21 11:55:00,89.6,53.1,30.04,SSW,202,0.9,2.0,29,0.00,,,0.00,WUHU21623XXSP,2013-07-21 18:55:00,
2013-07-21 12:03:00,90.5,52.8,30.04,West,270,0.0,0.9,28,0.00,,,0.00,WUHU21623XXSP,2013-07-21 19:03:00,
2013-07-21 12:08:00,90.7,50.7,30.04,NNE,22,0.0,0.0,26,0.00,,,0.00,WUHU21623XXSP,2013-07-21 19:08:00,
2013-07-21 12:16:00,91.6,51.5,30.04,East,90,0.0,0.0,26,0.00,,,0.00,WUHU21623XXSP,2013-07-21 19:16:00,
2013-07-21 12:22:00,91.9,51.8,30.04,SSW,202,0.0,0.0,26,0.00,,,0.00,WUHU21623XXSP,2013-07-21 19:22:00,
2013-07-21 12:27:00,92.1,51.9,30.04,SSW,202,0.0,0.0,25,0.00,,,0.00,WUHU21623XXSP,2013-07-21 19:27:00,
2013-07-21 12:36:00,92.8,47.0,30.03,WNW,292,0.0,0.0,21,0.00,,,0.00,WUHU21623XXSP,2013-07-21 19:36:00,
2013-07-21 12:41:00,93.6,47.5,30.03,NW,315,0.0,0.0,21,0.00,,,0.00,WUHU21623XXSP,2013-07-21 19:41:00,
2013-07-21 12:46:00,93.7,44.9,30.03,NE,45,0.0,0.0,19,0.00,,,0.00,WUHU21623XXSP,2013-07-21 19:46:00,
2013-07-21 12:51:00,94.6,45.3,30.03,NNW,337,0.0,0.0,19,0.00,,,0.00,WUHU21623XXSP,2013-07-21 19:51:00,
2013-07-21 12:56:00,94.8,44.0,30.03,NNE,22,0.0,0.0,18,0.00,,,0.00,WUHU21623XXSP,2013-07-21 19:56:00,
2013-07-21 13:01:00,95.5,46.0,30.04,NNW,337,0.0,0.0,19,0.00,,,0.00,WUHU21623XXSP,2013-07-21 20:01:00,
2013-07-21 13:06:00,95.5,48.1,30.03,NNW,337,0.0,0.0,20,0.00,,,0.00,WUHU21623XXSP,2013-07-21 20:06:00,
2013-07-21 13:11:00,96.1,45.0,30.03,NNW,337,1.6,1.6,18,0.00,,,0.00,WUHU21623XXSP,2013-07-21 20:11:00,
2013-07-21 13:16:00,96.6,43.7,30.02,South,180,2.0,2.0,17,0.00,,,0.00,WUHU21623XXSP,2013-07-21 20:16:00,
2013-07-21 13:22:00,97.3,44.3,30.03,NNW,337,0.0,2.0,17,0.00,,,0.00,WUHU21623XXSP,2013-07-21 20:22:00,
2013-07-21 13:27:00,97.5,44.5,30.03,NW,315,0.0,0.0,17,0.00,,,0.00,WUHU21623XXSP,2013-07-21 20:27:00,
2013-07-21 13:32:00,97.9,41.1,30.02,NW,315,6.3,6.3,15,0.00,,,0.00,WUHU21623XXSP,2013-07-21 20:32:00,
2013-07-21 13:37:00,98.4,41.6,30.02,WNW,292,3.6,6.3,14,0.00,,,0.00,WUHU21623XXSP,2013-07-21 20:37:00,
2013-07-21 13:46:00,99.5,40.6,30.02,SSW,202,0.9,3.6,14,0.00,,,0.00,WUHU21623XXSP,2013-07-21 20:46:00,
2013-07-21 13:51:00,100.2,43.0,30.03,East,90,1.6,1.6,15,0.00,,,0.00,WUHU21623XXSP,2013-07-21 20:51:00,
2013-07-21 14:01:00,100.2,41.2,30.02,WNW,292,0.0,0.0,14,0.00,,,0.00,WUHU21623XXSP,2013-07-21 21:01:00,
2013-07-21 14:07:00,100.8,39.8,30.02,NNW,337,5.6,5.6,13,0.00,,,0.00,WUHU21623XXSP,2013-07-21 21:07:00,
2013-07-21 14:16:00,101.1,40.1,30.02,NNW,337,1.3,5.6,13,0.00,,,0.00,WUHU21623XXSP,2013-07-21 21:16:00,
2013-07-21 14:24:00,101.3,40.2,30.02,NNE,22,0.0,1.3,14,0.00,,,0.00,WUHU21623XXSP,2013-07-21 21:24:00,
2013-07-21 14:29:00,101.5,42.2,30.02,SSW,202,0.0,0.0,14,0.00,,,0.00,WUHU21623XXSP,2013-07-21 21:29:00,
2013-07-21 14:30:00,101.5,42.2,30.02,SSW,202,0.0,0.0,14,0.00,,,0.00,WUHU21623XXSP,2013-07-21 21:30:00,
2013-07-21 14:35:00,101.5,42.2,30.01,SSW,202,3.1,3.1,14,0.00,,,0.00,WUHU21623XXSP,2013-07-21 21:35:00,
2013-07-21 14:40:00,101.7,40.5,30.01,North,0,6.3,9.2,12,0.00,,,0.00,WUHU21623XXSP,2013-07-21 21:40:00,
2013-07-21 14:46:00,101.5,40.3,30.01,West,270,8.1,9.2,13,0.00,,,0.00,WUHU21623XXSP,2013-07-21 21:46:00,
2013-07-21 14:54:00,101.5,38.5,30.01,WNW,292,7.4,8.1,12,0.00,,,0.00,WUHU21623XXSP,2013-07-21 21:54:00,
2013-07-21 15:07:00,101.7,40.5,30.01,WNW,292,4.9,4.9,13,0.00,,,0.00,WUHU21623XXSP,2013-07-21 22:07:00,
2013-07-21 15:12:00,101.8,40.6,30.01,NNW,337,8.3,8.3,13,0.00,,,0.00,WUHU21623XXSP,2013-07-21 22:12:00,
2013-07-21 15:17:00,101.7,38.7,30.01,NNW,337,3.6,8.3,12,0.00,,,0.00,WUHU21623XXSP,2013-07-21 22:17:00,
2013-07-21 15:22:00,101.5,38.5,30.01,NNW,337,2.5,3.6,12,0.00,,,0.00,WUHU21623XXSP,2013-07-21 22:22:00,
2013-07-21 15:27:00,101.8,40.3,30.01,West,270,0.0,2.5,13,0.00,,,0.00,WUHU21623XXSP,2013-07-21 22:27:00,
2013-07-21 15:32:00,101.8,40.6,30.01,SSE,157,0.7,0.7,13,0.00,,,0.00,WUHU21623XXSP,2013-07-21 22:32:00,
2013-07-21 15:37:00,102.0,38.9,30.01,WNW,292,11.9,11.9,12,0.00,,,0.00,WUHU21623XXSP,2013-07-21 22:37:00,
2013-07-21 15:38:00,102.0,38.9,30.01,WNW,292,11.9,11.9,12,0.00,,,0.00,WUHU21623XXSP,2013-07-21 22:38:00,
2013-07-21 15:44:00,102.0,40.7,30.00,West,270,1.1,11.9,13,0.00,,,0.00,WUHU21623XXSP,2013-07-21 22:44:00,
2013-07-21 15:49:00,102.0,40.7,30.00,North,0,1.8,1.8,12,0.00,,,0.00,WUHU21623XXSP,2013-07-21 22:49:00,
2013-07-21 15:54:00,102.0,40.7,30.00,West,270,0.0,1.8,13,0.00,,,0.00,WUHU21623XXSP,2013-07-21 22:54:00,
2013-07-21 15:59:00,102.0,40.7,30.00,NNE,22,0.9,4.3,13,0.00,,,0.00,WUHU21623XXSP,2013-07-21 22:59:00,
2013-07-21 16:05:00,102.0,42.5,29.99,WNW,292,2.2,2.2,14,0.00,,,0.00,WUHU21623XXSP,2013-07-21 23:05:00,
2013-07-21 16:11:00,102.0,40.7,30.00,West,270,5.4,5.4,13,0.00,,,0.00,WUHU21623XXSP,2013-07-21 23:11:00,
2013-07-21 16:16:00,102.0,40.7,29.99,West,270,2.0,5.4,13,0.00,,,0.00,WUHU21623XXSP,2013-07-21 23:16:00,
2013-07-21 16:22:00,102.0,40.7,29.99,West,270,2.2,2.2,13,0.00,,,0.00,WUHU21623XXSP,2013-07-21 23:22:00,
2013-07-21 16:31:00,101.8,40.6,29.99,WSW,247,3.4,3.4,13,0.00,,,0.00,WUHU21623XXSP,2013-07-21 23:31:00,
2013-07-21 16:36:00,101.8,40.6,29.99,NNE,22,0.0,3.4,13,0.00,,,0.00,WUHU21623XXSP,2013-07-21 23:36:00,
2013-07-21 16:46:00,101.8,42.4,29.99,WSW,247,2.7,2.7,14,0.00,,,0.00,WUHU21623XXSP,2013-07-21 23:46:00,
2013-07-21 16:54:00,101.7,42.3,29.99,West,270,6.0,6.0,14,0.00,,,0.00,WUHU21623XXSP,2013-07-21 23:54:00,
2013-07-21 16:59:00,101.5,42.3,29.99,WNW,292,2.2,6.0,14,0.00,,,0.00,WUHU21623XXSP,2013-07-21 23:59:00,
2013-07-21 17:04:00,101.5,42.2,29.99,SW,225,0.0,2.2,14,0.00,,,0.00,WUHU21623XXSP,2013-07-22 00:04:00,
2013-07-21 17:09:00,101.1,41.9,29.99,NNW,337,0.0,1.6,14,0.00,,,0.00,WUHU21623XXSP,2013-07-22 00:09:00,
2013-07-21 17:15:00,100.9,43.6,29.99,North,0,1.6,1.6,15,0.00,,,0.00,WUHU21623XXSP,2013-07-22 00:15:00,
2013-07-21 17:20:00,100.8,43.4,29.99,West,270,1.6,3.4,15,0.00,,,0.00,WUHU21623XXSP,2013-07-22 00:20:00,
2013-07-21 17:25:00,100.6,41.5,29.99,WSW,247,2.9,3.4,14,0.00,,,0.00,WUHU21623XXSP,2013-07-22 00:25:00,
2013-07-21 17:30:00,100.2,43.0,29.99,NNW,337,0.0,2.9,15,0.00,,,0.00,WUHU21623XXSP,2013-07-22 00:30:00,
2013-07-21 17:35:00,100.2,43.0,29.99,WNW,292,4.9,4.9,15,0.00,,,0.00,WUHU21623XXSP,2013-07-22 00:35:00,
2013-07-21 17:40:00,100.2,43.0,29.99,West,270,0.0,4.9,15,0.00,,,0.00,WUHU21623XXSP,2013-07-22 00:40:00,
2013-07-21 17:45:00,100.0,42.9,29.99,West,270,2.7,2.7,15,0.00,,,0.00,WUHU21623XXSP,2013-07-22 00:45:00,
2013-07-21 17:50:00,99.7,42.6,29.98,North,0,0.0,2.7,15,0.00,,,0.00,WUHU21623XXSP,2013-07-22 00:50:00,
2013-07-21 17:55:00,99.5,42.4,29.98,NNW,337,0.7,0.7,15,0.00,,,0.00,WUHU21623XXSP,2013-07-22 00:55:00,
2013-07-21 18:00:00,99.3,42.3,29.98,WSW,247,9.6,9.6,15,0.00,,,0.00,WUHU21623XXSP,2013-07-22 01:00:00,
2013-07-21 18:05:00,99.1,42.0,29.98,NNE,22,1.3,9.6,15,0.00,,,0.00,WUHU21623XXSP,2013-07-22 01:05:00,
2013-07-21 18:10:00,99.0,42.2,29.98,NNE,22,1.3,3.8,15,0.00,,,0.00,WUHU21623XXSP,2013-07-22 01:10:00,
2013-07-21 18:16:00,98.6,41.7,29.98,SW,225,1.6,4.5,15,0.00,,,0.00,WUHU21623XXSP,2013-07-22 01:16:00,
2013-07-21 18:21:00,98.4,41.7,29.98,WSW,247,4.9,4.9,15,0.00,,,0.00,WUHU21623XXSP,2013-07-22 01:21:00,
2013-07-21 18:28:00,97.9,39.3,29.98,WNW,292,9.6,9.6,14,0.00,,,0.00,WUHU21623XXSP,2013-07-22 01:28:00,
2013-07-21 18:35:00,97.5,40.9,29.99,WNW,292,6.7,9.6,15,0.00,,,0.00,WUHU21623XXSP,2013-07-22 01:35:00,
2013-07-21 18:40:00,97.5,39.1,29.99,WNW,292,13.9,13.9,14,0.00,,,0.00,WUHU21623XXSP,2013-07-22 01:40:00,
2013-07-21 18:45:00,97.2,38.9,29.99,NNW,337,4.9,13.9,14,0.00,,,0.00,WUHU21623XXSP,2013-07-22 01:45:00,
2013-07-21 18:50:00,97.0,40.4,29.99,SW,225,8.3,8.3,15,0.00,,,0.00,WUHU21623XXSP,2013-07-22 01:50:00,
2013-07-21 18:59:00,96.4,40.0,29.99,NW,315,2.2,8.3,15,0.00,,,0.00,WUHU21623XXSP,2013-07-22 01:59:00,
2013-07-21 19:05:00,96.1,39.7,29.99,NNW,337,3.4,3.4,15,0.00,,,0.00,WUHU21623XXSP,2013-07-22 02:05:00,
2013-07-21 19:18:00,95.4,42.7,29.99,WSW,247,0.0,0.0,17,0.00,,,0.00,WUHU21623XXSP,2013-07-22 02:18:00,
2013-07-21 19:23:00,95.2,42.5,29.99,ENE,67,0.0,0.0,17,0.00,,,0.00,WUHU21623XXSP,2013-07-22 02:23:00,
2013-07-21 19:28:00,94.6,43.8,30.00,West,270,0.0,0.0,18,0.00,,,0.00,WUHU21623XXSP,2013-07-22 02:28:00,
2013-07-21 19:33:00,94.3,43.6,29.99,NW,315,0.0,0.0,18,0.00,,,0.00,WUHU21623XXSP,2013-07-22 02:33:00,
2013-07-21 19:38:00,94.1,43.4,30.00,North,0,9.4,9.4,18,0.00,,,0.00,WUHU21623XXSP,2013-07-22 02:38:00,
2013-07-21 19:50:00,93.0,46.1,30.00,West,270,3.4,3.4,20,0.00,,,0.00,WUHU21623XXSP,2013-07-22 02:50:00,
2013-07-21 19:55:00,93.0,47.2,30.00,West,270,0.9,3.4,21,0.00,,,0.00,WUHU21623XXSP,2013-07-22 02:55:00,
2013-07-21 20:00:00,92.3,46.7,30.00,NW,315,7.2,7.2,21,0.00,,,0.00,WUHU21623XXSP,2013-07-22 03:00:00,
2013-07-21 20:05:00,91.9,47.4,30.00,SSW,202,1.8,7.2,22,0.00,,,0.00,WUHU21623XXSP,2013-07-22 03:05:00,
2013-07-21 20:10:00,91.6,48.2,30.00,WNW,292,4.5,4.5,23,0.00,,,0.00,WUHU21623XXSP,2013-07-22 03:10:00,
2013-07-21 20:15:00,91.2,47.9,30.01,West,270,0.0,4.5,24,0.00,,,0.00,WUHU21623XXSP,2013-07-22 03:15:00,
2013-07-21 20:26:00,90.1,48.1,30.01,NNW,337,7.2,7.2,24,0.00,,,0.00,WUHU21623XXSP,2013-07-22 03:26:00,
2013-07-21 20:31:00,89.8,47.9,30.01,West,270,0.0,7.2,24,0.00,,,0.00,WUHU21623XXSP,2013-07-22 03:31:00,
2013-07-21 20:36:00,89.4,47.7,30.01,West,270,0.9,0.9,25,0.00,,,0.00,WUHU21623XXSP,2013-07-22 03:36:00,
2013-07-21 20:41:00,89.2,48.4,30.02,North,0,0.0,0.9,25,0.00,,,0.00,WUHU21623XXSP,2013-07-22 03:41:00,
2013-07-21 20:46:00,88.9,48.1,30.02,NNW,337,0.0,0.0,25,0.00,,,0.00,WUHU21623XXSP,2013-07-22 03:46:00,
2013-07-21 20:54:00,88.3,48.7,30.02,SSE,157,0.0,0.0,26,0.00,,,0.00,WUHU21623XXSP,2013-07-22 03:54:00,
2013-07-21 20:59:00,87.8,47.4,30.02,SSE,157,0.0,0.0,25,0.00,,,0.00,WUHU21623XXSP,2013-07-22 03:59:00,
2013-07-21 21:01:00,87.8,47.4,30.02,SSE,157,0.0,0.0,25,0.00,,,0.00,WUHU21623XXSP,2013-07-22 04:01:00,
2013-07-21 21:02:00,87.8,47.4,30.02,SSE,157,0.0,0.0,25,0.00,,,0.00,WUHU21623XXSP,2013-07-22 04:02:00,
2013-07-21 21:07:00,87.4,48.0,30.02,North,0,0.0,0.0,26,0.00,,,0.00,WUHU21623XXSP,2013-07-22 04:07:00,
2013-07-21 21:12:00,87.1,47.7,30.03,SSE,157,0.0,0.0,26,0.00,,,0.00,WUHU21623XXSP,2013-07-22 04:12:00,
2013-07-21 21:17:00,86.4,47.0,30.03,North,0,0.0,0.0,26,0.00,,,0.00,WUHU21623XXSP,2013-07-22 04:17:00,
2013-07-21 21:22:00,85.8,49.8,30.03,North,0,0.0,0.0,29,0.00,,,0.00,WUHU21623XXSP,2013-07-22 04:22:00,
2013-07-21 21:27:00,85.6,49.7,30.03,NE,45,0.0,0.0,29,0.00,,,0.00,WUHU21623XXSP,2013-07-22 04:27:00,
2013-07-21 21:37:00,85.3,49.4,30.04,NNE,22,0.9,0.9,29,0.00,,,0.00,WUHU21623XXSP,2013-07-22 04:37:00,
2013-07-21 21:42:00,85.3,49.4,30.04,ENE,67,0.0,0.9,29,0.00,,,0.00,WUHU21623XXSP,2013-07-22 04:42:00,
2013-07-21 21:47:00,85.3,49.4,30.04,NW,315,8.5,8.5,29,0.00,,,0.00,WUHU21623XXSP,2013-07-22 04:47:00,
2013-07-21 21:52:00,85.3,48.1,30.04,WNW,292,4.7,8.5,28,0.00,,,0.00,WUHU21623XXSP,2013-07-22 04:52:00,
2013-07-21 21:57:00,85.1,48.1,30.04,NW,315,0.7,4.7,28,0.00,,,0.00,WUHU21623XXSP,2013-07-22 04:57:00,
2013-07-21 22:02:00,85.1,46.0,30.04,NNW,337,6.3,6.3,26,0.00,,,0.00,WUHU21623XXSP,2013-07-22 05:02:00,
2013-07-21 22:09:00,85.3,45.1,30.04,SW,225,0.0,6.3,25,0.00,,,0.00,WUHU21623XXSP,2013-07-22 05:09:00,
2013-07-21 22:14:00,85.3,46.1,30.04,WNW,292,0.0,0.0,26,0.00,,,0.00,WUHU21623XXSP,2013-07-22 05:14:00,
2013-07-21 22:19:00,85.1,47.0,30.04,WNW,292,2.9,2.9,27,0.00,,,0.00,WUHU21623XXSP,2013-07-22 05:19:00,
2013-07-21 22:28:00,84.9,44.8,30.04,North,0,1.6,1.6,25,0.00,,,0.00,WUHU21623XXSP,2013-07-22 05:28:00,
2013-07-21 22:33:00,84.7,45.7,30.04,NNW,337,1.3,1.6,26,0.00,,,0.00,WUHU21623XXSP,2013-07-22 05:33:00,
2013-07-21 22:38:00,84.7,45.7,30.04,NNW,337,3.8,3.8,26,0.00,,,0.00,WUHU21623XXSP,2013-07-22 05:38:00,
2013-07-21 22:43:00,84.6,46.6,30.04,NW,315,0.0,3.8,27,0.00,,,0.00,WUHU21623XXSP,2013-07-22 05:43:00,
2013-07-21 22:48:00,84.4,46.4,30.05,SE,135,0.0,0.0,27,0.00,,,0.00,WUHU21623XXSP,2013-07-22 05:48:00,
2013-07-21 22:54:00,83.8,47.0,30.05,ESE,112,0.0,0.0,28,0.00,,,0.00,WUHU21623XXSP,2013-07-22 05:54:00,
2013-07-21 22:59:00,83.5,46.7,30.05,ESE,112,0.0,0.0,28,0.00,,,0.00,WUHU21623XXSP,2013-07-22 05:59:00,
2013-07-21 23:04:00,83.1,46.4,30.05,ENE,67,0.0,0.0,28,0.00,,,0.00,WUHU21623XXSP,2013-07-22 06:04:00,
2013-07-21 23:09:00,82.0,46.5,30.05,SE,135,0.0,0.0,29,0.00,,,0.00,WUHU21623XXSP,2013-07-22 06:09:00,
2013-07-21 23:14:00,81.5,46.2,30.05,SE,135,0.0,0.0,29,0.00,,,0.00,WUHU21623XXSP,2013-07-22 06:14:00,
2013-07-21 23:19:00,81.1,45.8,30.05,NE,45,0.0,0.0,29,0.00,,,0.00,WUHU21623XXSP,2013-07-22 06:19:00,
2013-07-21 23:24:00,80.6,45.4,30.05,ESE,112,0.0,0.0,29,0.00,,,0.00,WUHU21623XXSP,2013-07-22 06:24:00,
2013-07-21 23:30:00,79.9,45.8,30.05,ESE,112,0.0,0.0,30,0.00,,,0.00,WUHU21623XXSP,2013-07-22 06:30:00,
2013-07-21 23:35:00,79.5,45.8,30.06,ESE,112,0.0,0.0,30,0.00,,,0.00,WUHU21623XXSP,2013-07-22 06:35:00,
2013-07-21 23:43:00,79.0,44.9,30.06,SE,135,0.0,0.0,30,0.00,,,0.00,WUHU21623XXSP,2013-07-22 06:43:00,
2013-07-21 23:49:00,78.6,44.6,30.06,ESE,112,0.0,0.0,30,0.00,,,0.00,WUHU21623XXSP,2013-07-22 06:49:00,
2013-07-21 23:56:00,78.1,44.2,30.06,ENE,67,0.0,0.0,30,0.00,,,0.00,WUHU21623XXSP,2013-07-22 06:56:00,